Race Results for
White Tank Mountain Park Wheels of Fire
Waddell, AZ
(Event Information)
View By:
This is a non-competitive event
Cross Country on 10/20/2001

Note: Ranking points are NOT upgrade points. An explanation of ranking points can be found here.


Men - Junior - JR - 1-12

 Place NameCity, StateTime USAC #BibTeam
1 DAVID HUNT   31:36  1018 
1 UNKNOWN RIDER    17:00  9000 
2 DAVID ERB   17:01  980 
2 Doug Hunt   Mesa, AZ31:42 177882  1019 
3 Isaiah Klassen   Phoenix, AZ34:33 175923  1158 
3 CORY KIRK   30:44  1030 

Men - Junior - JR - 13-14

 Place NameCity, StateTime USAC #BibTeam
1 Ryan Walsh   Hiram, GA39:15 177817  1227 
2 ANDREW JORGENSON   43:56  1023 
3 NATHANIEL HARRIS   54:22  1006 
4 LUKE DALEY   55:03  972 

Men - Junior - JR - 15-16

 Place NameCity, StateTime USAC #BibTeam
1 B Francoeur   Mesa, AZ34:51 177766  1182 
2 Tim Allen   Golden, CO36:35 161831  933 
3 Jonathan Gorman   Scottsdale, AZ36:38 178528  1144 
4 Neal Greene   Scottsdale, AZ36:55 165628  999 
5 JOEL POMERENE   41:34  1205 
6 Mark Tenniswood   Camp Verde, AZ43:33 179874  1113 
7 Daniel Short   Phoenix, AZ49:38 161830  1099 
8 RYAN KAPAROTT   50:22  1223 
9 WINN WORKMAN   1:34:29  1131 
10 MICHAEL OBREGON   2:03:21  1072 

Men - Junior - JR - 17-18

 Place NameCity, StateTime USAC #BibTeam
1 Cody Worrell   Glendale, AZ35:16 177874  1133 
2 Michael Vester   Dewey, AZ37:13 177877  1119 
3 JUSTIN WHITESIDES   40:36  1126 

Men - Junior - JR - JuniorX

 Place NameCity, StateTime USAC #BibTeam
1 Paul Mumford   Chicago, IL1:48:18 167887  1141 
2 Adam Zimmerman   Silver City, NM2:02:59 177289  1220 

Men - EX - Senior - 19-29

 Place NameCity, StateTime USAC #BibTeam
1 Christopher Beardsley   San Diego, CA2:07:57 87648  1224 
2 Scott Keller   Sedona, AZ2:11:18 125723  1238 
3 Brandon Johnson   Queen Creek, AZ2:12:08 108140  1191 
4 Blake Tilker   Phoenix, AZ2:21:55 167878  1216 
5 Brad VanOrden   Prescott, AZ2:24:43 140292  1217 
6 DeJay Birtch   Tucson, AZ2:25:23 175788  1248 
7 Clayton Johnson   Tucson, AZ2:25:24 155943  1192 
8 Isaac Neff   Tucson, AZ2:40:55 167169  1200 
9 Tim Bolton   Tucson, AZ2:42:04 117086  1177 
10 JEREMY OLBERDING   Dripping Spgs, TX2:43:39 54873  1073 

Men - EX - Master - 30-39

 Place NameCity, StateTime USAC #BibTeam
1 RICH WEIS   2:16:46  1122 
2 Kevin Riseborough   Chandler, AZ2:23:20 177853  1084 
3 Andy Byrnes   Phoenix, AZ2:29:08 173538  1247 
4 Erick Seltmann   Queen Creek, AZ2:36:55 139099  1096 
5 Brett Jurica   Scottsdale, AZ2:40:56 167818  1024 
6 ED NEILSON   Boise, ID2:41:27 22401  1201 

Men - EX - Master - 40-49

 Place NameCity, StateTime USAC #BibTeam
1 Scott Hansen   Reno, NV2:22:21 108538  1002 
2 Jeff Armour   Phoenix, AZ2:36:13 1903  1249 
3 Craig Swetel   Mesa, AZ2:48:59 166887  1214 

Men - EX - Master - 50-54

 Place NameCity, StateTime USAC #BibTeam
1 Mike Hicks   Fountain Hills, AZ2:12:09 16109  1013 
2 Michael See   Gilbert, AZ2:24:25 125768  1094 
3 PAUL CORNELL   2:25:31  965 

Men - SP - Senior - 19-29

 Place NameCity, StateTime USAC #BibTeam
1 Nathan Lowrie   Phoenix, AZ1:41:42 168679  1197 
2 JD LOPEZ   1:41:46  1040 
3 CHAD SHELTON   1:46:27  1209 
4 Scott Francoeur   Mesa, AZ1:47:31 177767  1183 
5 Seth VanNorman   Tucson, AZ1:51:43 154146  1115 
6 Keith Atkins   Chandler, AZ1:51:51 82758  1170 
7 BRIAN CAREY   1:52:31  1174 
8 JERRAD COOPER   1:55:50  1143 
9 BRIAN JONES   2:01:38  1193 
10 MATTHEW DARBOUS   2:02:55  973 
11 Sean Lowe   Logan, UT2:03:29 167762  1043 
12 ROBERT DOLMAN   2:03:35  1241 
13 Donald Davis   Tucson, AZ2:03:36 167838  974 
14 Robert Mansolillo   Phoenix, AZ2:06:05 142072  1046 
15 Jason Franks   Phoenix, AZ2:08:55 168294  990 
16 William Loria   Mesa, AZ2:24:11 177079  1246 

Men - SP - Master - 30-34

 Place NameCity, StateTime USAC #BibTeam
1 Michael Hanson   Gilbert, AZ1:44:10 168528  1004 
2 Damon Shelton   Phoenix, AZ1:44:47 145377  1210 
3 Chris Smith   Scottsdale, AZ1:45:24 166146  1100 
4 RIGO NERI   1:48:13  1065 
5 Jeffrey Seese   Gilbert, AZ1:48:26 177080  1095 
6 Thomas Covington   Denver, CO1:50:57 159133  967 
7 RYAN MERKLEY   1:59:01  1243 
8 Aaron Ewing   Scottsdale, AZ2:00:10 159398  982 
9 Michael Rapps   Goodyear, AZ2:02:30 142186  1081 
10 Greg Rogers   Gilbert, AZ2:12:10 165662  1087 
11 Mike Wetzler   Mesa, AZ2:13:30 90558  1218 
12 Brett Gruendler   Tempe, AZ2:15:59 167763  1186 
13 Patrick Howland   Phoenix, AZ2:27:11 155155  1017 

Men - SP - Master - 35-39

 Place NameCity, StateTime USAC #BibTeam
1 Steven Venable   Scottsdale, AZ1:51:37 41865  1117 
2 Ted Pratt   Globe, AZ1:51:58 168290  1080 
3 David Herzog   Goodyear, AZ1:54:01 168781  1151 
4 DANIEL WHITEHILL   1:56:56  1219 
5 BARRY WEISSMAN   1:57:03  1123 
6 Tad Fagerholm   Phoenix, AZ2:04:26 11161  1179 
7 Michael Abad   Phoenix, AZ2:05:55 43295  932 
8 Scott Mydock   Glendale, AZ2:06:57 106945  1062 
9 Mitch Engdahl   Tempe, AZ2:09:24 165658  979 
10 ROBERT RAYL   Louisville, KY2:23:03 58066  1240 

Men - SP - Master - 40-49

 Place NameCity, StateTime USAC #BibTeam
1 John Neff   Flagstaff, AZ1:50:17 25799  1064 
2 Kurt Luedtke   Tucson, AZ1:55:18 21782  1145 
3 JOHN FITZER   2:01:31  1180 
4 Jan Campbell   Lucus, TX2:02:49 5946  1159 
5 Bruce Hanson   Phoenix, AZ2:18:54 126244  1003 

Men - SP - Master - 50-54

 Place NameCity, StateTime USAC #BibTeam
1 MIKE HARTMAN   1:27:04  1007 
2 Wayne Fernandez   Prescott, AZ1:30:18 150970  984 
3 Carl Schott   Mesa, AZ1:34:48 140932  1090 
4 David Dorney   Phoenix, AZ1:46:17 154002  978 

Men - BG - Senior - 19-29

 Place NameCity, StateTime USAC #BibTeam
1 JOSH EAKINS   1:07:22  1221 
2 Jeff Parker   Tucson, AZ1:12:19 184668  1142 
3 THOMAS KING   1:12:37  1027 
4 SCOTT SHELLEY   1:14:42  1098 
5 JAKE KIRKPATRICK   1:15:57  1233 
6 ROBB GREEN   1:16:39  1185 
7 MATTHEW HOWARD   1:17:51  1016 
8 Joel Stevenson   Tempe, AZ1:18:52 181375  1108 
9 KEITH MALTBY   Mesa, AZ1:19:47 185771  1045 
10 EVERARDO KEEME   1:20:18  1025 
11 KYLE REEDY   1:21:46  1206 
12 CHRIS BOLTZ   1:22:05  947 
13 WADE MESSER   1:22:10  1052 
14 CLINT HOSMAN   1:23:02  1014 
15 RICHARD KLEISS   1:23:50  1034 
16 Court Fetter   Mesa, AZ1:24:01 177101  985 
17 Jessy Moudry   Phoenix, AZ1:26:26 169386  1056 
18 KRIS HENDRICKS   1:26:38  1009 
19 PATRICK LINGLEY   1:26:43  1225 
20 James Schultz   Phoenix, AZ1:27:16 177166  1091 
21 JAKE RITTER   1:27:29  1207 
22 MIKE OSVOLD   1:30:04  1074 
23 WIDD WORKMAN   1:30:05  1132 
24 SCOTT WALL   1:30:45  1120 
25 KEITH PERRY   1:30:51  1204 
26 DAVID EDWARDS   1:30:52  1229 
27 PAUL NIXON   1:33:50  1164 
28 ERIC MATTESON   1:41:21  1048 
29 SAMMY BUCHANAN   1:57:05  957 
30 JORGE HERNANDEZ   1:58:51  1010 
31 JAVIER TAPIA   2:24:20  1147 
32 TOREL NICHOLS   2:36:50  1069 

Men - BG - Master - 30-34

 Place NameCity, StateTime USAC #BibTeam
1 Thomas Lawlor   Kyle, TX1:10:08 186000  1038 
2 Scott Williams   Chandler, AZ1:14:53 167443  1129 
3 Michael Noe   Oakland Gardens, NY1:14:55 176851  1070 
4 Kurt Mindy   Anthem, AZ1:16:45 166882  1053 
5 SEAN STEPHENSON   1:17:58  1107 
6 JOHN BETHEA   1:18:04  941 
7 FRED HANNERT   1:18:45  1187 
8 STEVE KOPP   1:19:47  1196 
9 MICHAEL FITZPATRICK   1:20:13  987 
10 KEVIN CROZIER   1:20:19  969 
11 Antonio Cortes   Phoenix, AZ1:21:51 181893  966 
12 STEVEN ARADIO   1:21:57  1169 
13 MICHAEL WHITESIDES   1:25:11  1127 
14 JOSE AVILA   1:25:14  937 
15 STEVEN SULLIVAN   1:25:46  1112 
16 Steve Houk   Phoenix, AZ1:28:46 166888  1015 
17 Robert Wilcox   Phoenix, AZ1:29:11 165634  1166 
18 James VanVorst   Phoenix, AZ1:29:15 142329  1116 
19 BARRY JETTON   1:29:45  1021 
20 JEFF BROWN   London, OH1:29:53 89259  955 
21 MATTHEW KRITZSTEIN   1:30:25  1036 
22 JAMES STENHOLM   1:30:27  1235 
23 LANCE FREED   1:31:19  1230 
24 DAVID SKOVIAK   1:33:57  1232 
25 PAUL WHEELER   1:35:24  1125 
26 DAVE ROLAPE   1:42:00  1088 
27 PATRICK NEWTON   2:38:05  1068 

Men - BG - Master - 35-39

 Place NameCity, StateTime USAC #BibTeam
1 John Fritz   Chandler, AZ1:14:42 49933  1184 
2 DAVID GRIFFIS   1:15:13  1000 
3 Dennis Keller   Denver, CO1:16:11 177885  1194 
4 Donald Miller   Phoenix, AZ1:17:29 157857  1199 
5 GREG ZYCH   1:18:54  1135 
6 DOUG STREETER   1:20:05  1111 
7 ERIK GAUHAROU   1:21:09  995 
8 Noel Garcia   Phoenix, AZ1:24:47 177810  994 
9 DENNIS LOW   1:28:20  1042 
10 MARTIN VITO   1:30:50  1236 
11 Doug Bertrand   Mesa, AZ1:31:39 174273  940 
12 William Phillips   Tucson, AZ1:32:33 125607  1078 
13 MIKE CARGILE   1:38:55  960 
14 LARRY DONG   1:41:36  1176 
15 MARK CLEVELAND   Pittsburgh, PA2:19:19 75994  963 
16 BRADFORD HARRIS   2:24:00  1005 

Men - BG - Master - 40-49

 Place NameCity, StateTime USAC #BibTeam
1 Jonathan Klassen   Phoenix, AZ1:14:16 175922  1157 
2 PHIL MUMME   1:17:17  1059 
3 Bob Malheiro   Driggs, ID1:21:49 174804  1154 
4 KARL STAUFFER   1:23:21  1234 
5 Kelly Reedy   Mesa, AZ1:23:30 178160  1083 
6 BRIAN GOTCHER   1:25:00  998 
7 MICHAEL MCCOY   1:28:05  1049 
8 EDWARD SMITH   1:31:43  1101 
9 Steve Somerville   Chandler, AZ1:36:58 125763  1102 
10 DAVE FLEMING   1:39:31  988 
11 DOUG CULPEPPER   1:40:15  970 
12 TONY ZINZUN   1:45:16  1134 
13 THOMAS CULPEPPER   1:45:17  971 

Men - BG - Master - 50-54

 Place NameCity, StateTime USAC #BibTeam
1 Rick Scofield   Sonoita, AZ1:24:36 177897  1092 
2 RON DERADOURIAN   1:50:27  977 
3 Larry Moats   Traverse City, MI1:54:26 176712  1140 
4 JIM COX   1:55:30  968 

Men - BG - Master - 55-99

 Place NameCity, StateTime USAC #BibTeam
1 MIKE STYES   1:29:31  1213 
2 Charles Dell   Chandler, AZ1:30:21 106952  976 
3 William Garan   Tempe, AZ1:33:20 176711  992 
4 Charles Boyer   Tucson, AZ1:34:12 4497  951 

Women - Junior - JR - 1-12

 Place NameCity, StateTime USAC #BibTeam
1 AUBREY GARCIA   40:54  993 

Women - Junior - JR - 13-14

 Place NameCity, StateTime USAC #BibTeam
1 Amy Stabler   Phoenix, AZ21:45 177762  1105 
2 HEATHER MUMME   31:49  1058 

Women - Junior - JR - 17-18

 Place NameCity, StateTime USAC #BibTeam
1 MONIQUE HEIN   53:53  1190 

Women - Junior - JR - JuniorX

 Place NameCity, StateTime USAC #BibTeam
1 Rebekah Muster   Phoenix, AZ1:44:58 168772  1061 

Women - EX - Senior - 19-29

 Place NameCity, StateTime USAC #BibTeam
1 JENNIFER SICA   Flagstaff, AZ2:30:05 127889  1148 

Women - EX - Master - 30-39

 Place NameCity, StateTime USAC #BibTeam
1 Lila McFarland   Phoenix, AZ1:57:40 156249  1050 
2 Sandi Scrimgeour   Prescott, AZ1:59:55 32020  1093 
3 Stephany Newmeyer   Avondale, AZ2:05:32 154051  1237 
4 Sheri Wallace   Tempe, AZ2:24:28 156153  1121 

Women - EX - Master - 40-49

 Place NameCity, StateTime USAC #BibTeam
1 LOIS KINNEY NEFF   Flagstaff, AZ2:22:15 168784  1029 

Women - SP - Senior - 19-29

 Place NameCity, StateTime USAC #BibTeam
1 Courtney Friesner   Scottsdale, AZ1:24:14 168670  991 
2 SHANNON KITCHENS   1:25:20  1033 
3 JOANNA BIERI   1:28:17  1239 
4 Kathy Boltz   Phoenix, AZ1:33:34 179842  948 

Women - SP - Master - 30-39

 Place NameCity, StateTime USAC #BibTeam
1 Wendy Aber   Glendale, AZ1:29:22 166466  1167 

Women - SP - Master - 40-49

 Place NameCity, StateTime USAC #BibTeam
1 Beverly Rogers   Phoenix, AZ1:24:49 177806  1086 
2 Jan Blackman   Flagstaff, AZ1:44:35 3845  944 

Women - BG - Senior - 19-29

 Place NameCity, StateTime USAC #BibTeam
1 Heather Fetter   Mesa, AZ42:49 178519  986 
2 LIZ MELVIN   46:18  1161 
3 CRISTINA LUIS   53:56  1044 

Women - BG - Master - 30-34

 Place NameCity, StateTime USAC #BibTeam
1 ANA TWEEDY   57:42  1114 
2 LORING SPENCER   58:19  1103 
3 DEBORAH BRANSON   1:03:10  953 
4 MARCI HESSLER   1:05:37  1011 

Women - BG - Master - 35-39

 Place NameCity, StateTime USAC #BibTeam
1 JOANNE CARGO   44:01  1162 
2 Maria Spence   Tucson, AZ54:25 126758  1211 
3 DEBBIE MUMME   55:00  1057 

Women - BG - Master - 40-49

 Place NameCity, StateTime USAC #BibTeam
1 Lisa Jackson   Phoenix, AZ55:53 68464  1020 
2 BARBARA SPERRY   55:58  1104 
3 Konni Parker   Camp Verde, AZ1:05:36 168754  1203 

Women - BG - Master - 50-99

 Place NameCity, StateTime USAC #BibTeam
1 Hilda Huntress   Cave Creek, AZ1:12:03 166467  1137 

Report missing or incorrect license numbers

Volkswagen
OSMOShimanoSierra NevadaBonk BreakerSpyCUOREUSACDF
UCI USA Cycling is the official governing body for all disciplines of competitive cycling in the United States. The 501c3, membership-based organization aims both to achieve sustained success in international cycling competition and to grow competitive cycling in America while delivering an exceptional customer experience.
View Children's Online Privacy Protection Policy
US Olympic Committee